Nashville, TN

5:06 AM CST on January 18, 2018 (GMT -0600)
Nashville International

Weather History for KBNA - March, 2014

Change the Weather History Date:

Tuesday, March 25, 2014

  Actual Average Record
Temperature  
Mean Temperature 37 °F 53 °F  
Max Temperature 44 °F 64 °F 86 °F (2007)
Min Temperature 30 °F 41 °F 21 °F (1940)
Degree Days  
Heating Degree Days 28    
Month to date heating degree days 461  
Since 1 July heating degree days 3646  
Cooling Degree Days 0    
Month to date cooling degree days 0  
Year to date cooling degree days 0  
Moisture  
Dew Point 21 °F    
Average Humidity 58    
Maximum Humidity 85    
Minimum Humidity 30    
Precipitation  
Precipitation 0.01 in 0.13 in 2.33 in (1884)
Month to date precipitation 3.33 3.29  
Year to date precipitation 11.03 10.98  
Snow  
Snow 0.00 in - 1.90 in (1971)
Month to date snowfall 0.1  
Since 1 July snowfall 1.5  
Snow Depth 0.00 in    
Sea Level Pressure  
Sea Level Pressure 30.15 in    
Wind  
Wind Speed 11 mph (NNW)    
Max Wind Speed 25 mph    
Max Gust Speed 36 mph    
Visibility 8 miles    
Events Snow    
T = Trace of Precipitation, MM = Missing Value Source: NWS Daily Summary

Daily Weather History Graph

Daily Weather History Graph

Search for Another Location

Airport or City:

Trip Planner

Search our weather history database for the weather conditions in past years. The results will help you decide how hot, cold, wet, or windy it might be!

Date:

Astronomy

Mar. 25, 2014 Rise Set
Actual Time 6:43 AM CDT 7:02 PM CDT
Civil Twilight 6:17 AM CDT 7:28 PM CDT
Nautical Twilight 5:47 AM CDT 7:58 PM CDT
Astronomical Twilight 5:16 AM CDT 8:29 PM CDT
Moon 2:55 AM CDT (3/25) 1:41 PM CDT (3/25)
Length of Visible Light 13h 11m
Length of Day
12h 19m
Waning Crescent, 32% of the Moon is Illuminated
Mar 25
Waning Crescent
Mar 30
New
Apr 7
First Quarter
Apr 15
Full
Apr 22
Last Quarter

Hourly Weather History & Observations

Time (CDT) Temp. Windchill Dew Point Humidity Pressure Visibility Wind Dir Wind Speed Gust Speed Precip Events Conditions
12:53 AM 41.0 °F 35.2 °F 17.1 °F 38% 30.08 in 10.0 mi NNW 9.2 mph - N/A   Mostly Cloudy
1:53 AM 39.0 °F 31.8 °F 17.1 °F 41% 30.07 in 10.0 mi North 11.5 mph - N/A   Overcast
2:53 AM 37.0 °F 31.0 °F 18.0 °F 46% 30.06 in 10.0 mi NNW 8.1 mph - N/A   Mostly Cloudy
3:53 AM 35.1 °F 28.6 °F 21.0 °F 57% 30.06 in 10.0 mi NNW 8.1 mph - N/A   Mostly Cloudy
4:53 AM 35.1 °F 29.3 °F 23.0 °F 61% 30.06 in 10.0 mi North 6.9 mph - N/A   Overcast
5:53 AM 34.0 °F 28.8 °F 25.0 °F 70% 30.07 in 10.0 mi NW 5.8 mph - N/A   Overcast
6:53 AM 34.0 °F 28.0 °F 26.1 °F 73% 30.07 in 10.0 mi NNW 6.9 mph - 0.00 in Snow Light Snow
7:53 AM 34.0 °F 25.5 °F 26.1 °F 73% 30.10 in 8.0 mi NNW 11.5 mph - 0.00 in Snow Light Snow
8:23 AM 33.8 °F 25.3 °F 26.6 °F 75% 30.11 in 1.8 mi NW 11.5 mph 19.6 mph 0.00 in Snow Light Snow
8:38 AM 33.8 °F 27.7 °F 28.4 °F 81% 30.11 in 2.0 mi NW 6.9 mph - 0.00 in Snow Light Snow
8:53 AM 34.0 °F 25.0 °F 28.0 °F 79% 30.13 in 4.0 mi NW 12.7 mph - 0.00 in Snow Light Snow
9:53 AM 35.1 °F 26.9 °F 28.0 °F 76% 30.15 in 7.0 mi NW 11.5 mph 18.4 mph 0.00 in Snow Light Snow
10:53 AM 36.0 °F 25.6 °F 25.0 °F 64% 30.16 in 10.0 mi NW 18.4 mph 24.2 mph 0.00 in   Overcast
11:28 AM 39.2 °F 30.5 °F 24.8 °F 56% 30.15 in 10.0 mi NW 16.1 mph 25.3 mph 0.00 in   Mostly Cloudy
11:53 AM 37.0 °F 27.7 °F 25.0 °F 62% 30.16 in 3.0 mi NNW 16.1 mph 28.8 mph 0.00 in Snow Light Snow
12:05 PM 35.6 °F 25.5 °F 28.4 °F 75% 30.16 in 2.0 mi NW 17.3 mph 28.8 mph 0.00 in Snow Light Snow
12:07 PM 35.6 °F 25.2 °F 28.4 °F 75% 30.16 in 1.8 mi NNW 18.4 mph 28.8 mph 0.00 in Snow Light Snow
12:17 PM 35.6 °F 26.6 °F 30.2 °F 81% 30.16 in 3.0 mi NW 13.8 mph 19.6 mph 0.00 in Snow Light Snow
12:48 PM 35.6 °F 23.4 °F 28.4 °F 75% 30.16 in 2.0 mi North 25.3 mph 35.7 mph 0.00 in Snow Light Snow
12:53 PM 32.0 °F 21.6 °F 28.9 °F 88% 30.17 in 2.5 mi NNW 15.0 mph 35.7 mph 0.00 in Snow Light Snow
1:08 PM 33.8 °F 27.0 °F 30.2 °F 87% 30.16 in 7.0 mi NW 8.1 mph 16.1 mph 0.00 in Snow Light Snow
1:23 PM 37.4 °F 30.3 °F 28.4 °F 70% 30.16 in 10.0 mi NW 10.4 mph 20.7 mph 0.01 in   Scattered Clouds
1:53 PM 37.9 °F 27.9 °F 21.9 °F 53% 30.17 in 10.0 mi WNW 19.6 mph 33.4 mph 0.01 in   Mostly Cloudy
2:53 PM 39.0 °F 31.0 °F 17.1 °F 41% 30.17 in 10.0 mi NNW 13.8 mph 32.2 mph 0.00 in   Unknown
3:53 PM 44.1 °F 37.4 °F 15.1 °F 31% 30.17 in 9.0 mi NW 13.8 mph 26.5 mph 0.00 in   Mostly Cloudy
4:53 PM 42.1 °F 35.2 °F 14.0 °F 32% 30.19 in 10.0 mi NW 12.7 mph 27.6 mph N/A   Mostly Cloudy
5:53 PM 39.9 °F 31.1 °F 12.9 °F 33% 30.21 in 10.0 mi North 17.3 mph 25.3 mph N/A   Mostly Cloudy
6:53 PM 37.9 °F 28.9 °F 12.0 °F 35% 30.22 in 10.0 mi NNW 16.1 mph - N/A   Scattered Clouds
7:53 PM 37.0 °F 30.4 °F 10.9 °F 34% 30.23 in 10.0 mi NNW 9.2 mph - N/A   Scattered Clouds
8:53 PM 35.1 °F 29.3 °F 10.9 °F 37% 30.25 in 10.0 mi NNW 6.9 mph - N/A   Partly Cloudy
9:53 PM 34.0 °F 31.0 °F 12.0 °F 40% 30.27 in 10.0 mi NW 3.5 mph - N/A   Partly Cloudy
10:53 PM 33.1 °F 27.7 °F 15.1 °F 48% 30.28 in 10.0 mi North 5.8 mph - N/A   Clear
11:53 PM 30.9 °F 24.3 °F 16.0 °F 54% 30.29 in 10.0 mi North 6.9 mph - N/A   Clear